Voltar ao catálogo

DELTA 1 DEB

AtivoLEO
NORAD 10227·DEBRIS·🇺🇸 United States

Lançado Jul 14, 1977 de Cape Canaveral Space Force Station

Loading…

Próximas Passagens (próximas 24 horas)

TLE

AtualizadoSource: Space-Track

Época: Sep 14, 2026, 05:50 UTC

1 10227U 77065BE  26257.24315349  .00001097  00000-0  33099-3 0  9994
2 10227  28.9538 224.2604 0671618 263.9304  88.4379 13.53365399386750

Acompanhe DELTA 1 DEB em tempo real com AllMySat

Download on the App Store